Location: Newark
(43.4306°N, 0.3089°E)
Time: 09:21:56
(UTC+00:00)

Vanguard 3 - Pass Details

Date: 28 August 2019
Orbit: 508 x 3262 km, 33.3° (Epoch: 21 October)

Event Time Altitude Azimuth Distance (km) Brightness Sun altitude
Rises 17:50:02 0° 260° (W) 4,905 12.9 8.4°
Reaches altitude 10° 17:54:18 10° 252° (WSW) 3,425 11.8 7.6°
Maximum altitude 18:01:09 32° 194° (SSW) 1,543 8.8 6.4°
Drops below altitude 10° 18:05:35 10° 130° (SE) 2,175 8.9 5.6°
Sets 18:07:43 0° 119° (ESE) 2,903 9.4 5.2°
